Location: ?????????
(38.0736°N, 23.2119°E)
Time: 12:41:09
(UTC+00:00)

SL-16 R/B - Pass Details

Date: 18 April 2024
Orbit: 841 x 846 km, 71.0° (Epoch: 17 May)

Event Time Altitude Azimuth Distance (km) Brightness Sun altitude
Exits shadow 21:41:20 18° 28° (NNE) 1,983 4.5 -39.6°
Drops below altitude 10° 21:42:38 10° 26° (NNE) 2,470 5.1 -39.6°
Sets 21:45:06 0° 25° (NNE) 3,409 5.9 -39.7°
